Location: *
(24.1434°N, 56.8729°E)
Time: 19:59:48
(UTC+00:00)

STARLINK-1113 - Pass Details

Date: 09 April 2020
Orbit: 549 x 551 km, 53.0° (Epoch: 25 May)

Event Time Altitude Azimuth Distance (km) Brightness Sun altitude
Rises 15:12:33 0° 319° (NW) 2,723 8.1 -9.9°
Reaches altitude 10° 15:14:48 10° 319° (NW) 1,827 7.2 -10.4°
Maximum altitude 15:18:57 80° 232° (SW) 563 3.7 -11.3°
Enters shadow 15:22:58 11° 145° (SE) 1,776 5.8 -12.2°
